Precipitable_Water
1.33 1.30 1.29 1.23 1.17 1.10 1.07 1.04 0.98 0.95 0.90 0.87 0.80 0.77 0.77 0.83 0.88 0.90 0.92 0.90 0.90 0.96 1.02 1.02 1.04 1.08 1.11 1.12 1.14 1.17 1.19 1.23 1.32 1.36 1.35 1.31 1.31 1.29 1.30 1.28 1.24 1.23 1.25 1.28 1.32 1.30 1.30 1.33 1.38 1.40 1.45 1.40 1.41 1.41 1.37 1.37 1.42 1.40 1.36 1.33 1.28 1.31 1.27 1.19 1.03 0.93 1.04 1.24 1.20 1.18 1.27 1.30 1.19 1.27 1.23 1.27 1.36 1.51 1.64 1.71 1.74 1.72 1.73 1.75 1.78
1.33 1.32 1.33 1.28 1.19 1.14 1.11 1.09 1.05 1.00 0.93 0.89 0.86 0.82 0.79 0.78 0.81 0.88 0.90 0.92 0.92 0.89 0.92 1.03 1.06 1.09 1.13 1.14 1.13 1.16 1.19 1.21 1.25 1.30 1.28 1.28 1.29 1.30 1.27 1.26 1.23 1.23 1.26 1.24 1.26 1.30 1.31 1.30 1.33 1.35 1.38 1.32 1.32 1.34 1.36 1.32 1.30 1.28 1.32 1.31 1.29 1.32 1.41 1.23 1.12 1.03 0.90 1.08 1.14 1.27 1.27 1.33 1.16 1.25 1.21 1.24 1.35 1.50 1.54 1.60 1.67 1.72 1.73 1.78 1.82
1.34 1.34 1.35 1.33 1.26 1.21 1.16 1.11 1.08 1.03 0.98 0.93 0.88 0.86 0.84 0.82 0.83 0.83 0.85 0.90 0.96 0.94 0.91 0.94 1.02 1.07 1.09 1.12 1.15 1.16 1.18 1.20 1.23 1.25 1.24 1.22 1.22 1.25 1.25 1.23 1.20 1.18 1.18 1.18 1.21 1.27 1.26 1.26 1.27 1.29 1.31 1.26 1.28 1.29 1.32 1.28 1.28 1.26 1.26 1.33 1.32 1.32 1.34 1.31 1.19 1.05 1.01 1.00 1.14 1.12 1.17 1.23 1.18 1.18 1.32 1.43 1.52 1.59 1.61 1.64 1.69 1.75 1.82 1.85 1.88
1.40 1.35 1.34 1.34 1.34 1.28 1.21 1.15 1.10 1.05 0.99 0.97 0.93 0.91 0.89 0.87 0.87 0.87 0.88 0.91 0.93 0.99 0.99 0.97 1.00 1.05 1.06 1.09 1.12 1.14 1.16 1.18 1.19 1.20 1.19 1.18 1.15 1.16 1.19 1.17 1.15 1.15 1.13 1.12 1.15 1.18 1.17 1.16 1.20 1.26 1.26 1.20 1.21 1.25 1.29 1.30 1.28 1.25 1.23 1.32 1.32 1.28 1.28 1.28 1.26 1.16 1.09 0.97 1.03 1.06 1.12 1.12 1.18 1.31 1.43 1.56 1.61 1.64 1.66 1.69 1.76 1.76 1.82 1.88 1.90
1.50 1.39 1.33 1.33 1.36 1.32 1.24 1.20 1.12 1.06 1.01 0.98 0.96 0.97 0.97 0.95 0.93 0.91 0.93 0.95 0.97 1.01 1.04 1.05 1.04 1.06 1.07 1.09 1.11 1.11 1.13 1.15 1.14 1.13 1.14 1.15 1.14 1.12 1.14 1.15 1.12 1.09 1.08 1.07 1.09 1.10 1.11 1.09 1.11 1.17 1.22 1.17 1.16 1.17 1.21 1.23 1.29 1.29 1.25 1.23 1.19 1.19 1.20 1.19 1.16 1.16 1.07 0.96 0.97 1.06 1.14 1.16 1.25 1.33 1.47 1.50 1.56 1.61 1.66 1.65 1.68 1.74 1.80 1.87 1.90
1.60 1.49 1.38 1.33 1.33 1.31 1.28 1.23 1.15 1.09 1.05 1.01 0.99 0.99 1.01 1.02 1.01 1.01 1.01 1.00 1.03 1.07 1.07 1.09 1.09 1.09 1.10 1.13 1.16 1.16 1.16 1.16 1.15 1.12 1.11 1.12 1.14 1.14 1.14 1.14 1.14 1.10 1.06 1.06 1.05 1.04 1.04 1.06 1.09 1.14 1.16 1.13 1.10 1.14 1.19 1.19 1.21 1.21 1.19 1.19 1.17 1.14 1.12 1.14 1.16 1.14 1.10 1.03 1.02 0.99 1.07 1.09 1.17 1.28 1.43 1.52 1.47 1.46 1.52 1.62 1.69 1.76 1.75 1.75 1.82
1.65 1.59 1.49 1.36 1.29 1.28 1.28 1.24 1.20 1.15 1.10 1.07 1.05 1.04 1.02 1.04 1.06 1.06 1.09 1.09 1.10 1.11 1.13 1.13 1.15 1.14 1.15 1.17 1.18 1.19 1.19 1.20 1.17 1.15 1.13 1.12 1.11 1.10 1.11 1.12 1.11 1.11 1.09 1.07 1.07 1.06 1.04 1.04 1.07 1.11 1.13 1.14 1.12 1.11 1.15 1.18 1.18 1.17 1.18 1.18 1.18 1.14 1.11 1.11 1.13 1.12 1.08 1.02 0.99 1.00 1.00 1.13 1.22 1.18 1.35 1.46 1.47 1.49 1.47 1.50 1.50 1.66 1.75 1.75 1.73
1.70 1.64 1.57 1.45 1.33 1.27 1.25 1.25 1.24 1.21 1.17 1.14 1.12 1.09 1.07 1.07 1.08 1.11 1.13 1.12 1.13 1.14 1.16 1.16 1.17 1.17 1.17 1.18 1.21 1.24 1.23 1.21 1.20 1.17 1.15 1.12 1.10 1.09 1.10 1.09 1.07 1.07 1.06 1.07 1.07 1.07 1.06 1.04 1.05 1.09 1.12 1.14 1.14 1.15 1.17 1.14 1.17 1.14 1.17 1.17 1.15 1.12 1.08 1.08 1.09 1.08 1.03 0.99 0.93 0.93 1.04 1.08 1.14 1.23 1.31 1.34 1.32 1.39 1.54 1.50 1.41 1.52 1.63 1.74 1.75
1.75 1.72 1.64 1.52 1.40 1.33 1.29 1.28 1.27 1.25 1.22 1.18 1.15 1.13 1.11 1.10 1.11 1.13 1.14 1.14 1.16 1.17 1.20 1.20 1.19 1.19 1.19 1.19 1.21 1.27 1.27 1.24 1.23 1.19 1.15 1.13 1.12 1.10 1.10 1.08 1.06 1.03 1.03 1.03 1.04 1.05 1.07 1.06 1.05 1.06 1.09 1.12 1.16 1.19 1.21 1.23 1.19 1.13 1.13 1.15 1.12 1.10 1.07 1.06 1.04 1.03 1.00 0.96 0.92 1.02 1.05 1.04 1.04 1.05 1.09 1.15 1.20 1.27 1.45 1.55 1.48 1.55 1.60 1.60 1.68
1.76 1.73 1.67 1.57 1.51 1.45 1.41 1.37 1.31 1.27 1.23 1.17 1.15 1.14 1.14 1.13 1.13 1.14 1.14 1.14 1.15 1.18 1.20 1.23 1.24 1.21 1.19 1.20 1.21 1.23 1.25 1.27 1.26 1.23 1.19 1.15 1.14 1.13 1.12 1.10 1.08 1.05 1.02 1.02 1.03 1.03 1.03 1.05 1.07 1.07 1.07 1.09 1.12 1.16 1.22 1.27 1.30 1.27 1.21 1.19 1.15 1.11 1.06 1.01 1.00 1.01 0.99 0.92 0.92 0.95 0.92 0.89 0.93 1.04 1.08 1.16 1.29 1.36 1.33 1.37 1.35 1.48 1.56 1.57 1.67
1.76 1.74 1.69 1.69 1.63 1.57 1.51 1.45 1.40 1.33 1.26 1.21 1.17 1.16 1.16 1.17 1.16 1.16 1.17 1.17 1.16 1.17 1.19 1.21 1.22 1.25 1.23 1.21 1.20 1.20 1.22 1.24 1.24 1.23 1.21 1.21 1.20 1.16 1.13 1.11 1.10 1.07 1.06 1.04 1.01 1.02 1.03 1.05 1.07 1.09 1.12 1.12 1.13 1.15 1.20 1.26 1.29 1.30 1.27 1.25 1.24 1.16 1.07 1.01 0.99 1.02 0.97 0.92 0.96 0.96 0.92 0.89 0.91 1.03 1.09 1.13 1.17 1.20 1.27 1.37 1.42 1.47 1.46 1.41 1.38
1.75 1.76 1.79 1.80 1.74 1.65 1.57 1.53 1.46 1.38 1.33 1.27 1.22 1.19 1.19 1.19 1.17 1.17 1.18 1.19 1.19 1.20 1.17 1.17 1.19 1.23 1.25 1.25 1.22 1.21 1.20 1.22 1.22 1.19 1.19 1.20 1.21 1.18 1.15 1.12 1.11 1.08 1.07 1.07 1.07 1.07 1.05 1.05 1.07 1.09 1.09 1.07 1.09 1.16 1.21 1.23 1.25 1.25 1.23 1.22 1.23 1.25 1.23 1.11 1.01 0.98 0.95 0.91 0.89 0.88 0.90 0.87 0.90 0.97 1.00 1.06 1.11 1.21 1.33 1.40 1.43 1.44 1.45 1.46 1.49
1.84 1.84 1.87 1.86 1.81 1.73 1.68 1.60 1.52 1.45 1.39 1.34 1.30 1.25 1.21 1.19 1.18 1.17 1.16 1.19 1.22 1.19 1.16 1.17 1.18 1.22 1.25 1.24 1.23 1.23 1.22 1.23 1.23 1.20 1.17 1.18 1.18 1.18 1.15 1.13 1.11 1.10 1.07 1.05 1.06 1.09 1.10 1.08 1.07 1.09 1.09 1.09 1.09 1.07 1.07 1.10 1.15 1.16 1.16 1.17 1.19 1.20 1.19 1.18 1.17 1.06 1.02 0.99 0.92 0.88 0.88 0.93 0.94 0.96 1.09 1.15 1.27 1.23 1.34 1.37 1.43 1.48 1.53 1.51 1.55
2.03 2.00 1.94 1.92 1.86 1.82 1.76 1.69 1.60 1.53 1.48 1.45 1.40 1.32 1.24 1.17 1.16 1.19 1.20 1.23 1.20 1.18 1.19 1.18 1.19 1.20 1.23 1.23 1.23 1.25 1.24 1.26 1.24 1.22 1.20 1.19 1.19 1.18 1.16 1.14 1.13 1.10 1.07 1.05 1.06 1.09 1.11 1.09 1.07 1.05 1.08 1.10 1.12 1.11 1.08 1.05 1.03 1.04 1.06 1.08 1.09 1.11 1.15 1.15 1.12 1.10 1.13 1.08 1.02 0.93 0.95 1.08 1.03 1.11 1.23 1.31 1.26 1.25 1.31 1.34 1.45 1.47 1.51 1.55 1.68
1.85 1.98 2.00 1.92 1.90 1.87 1.83 1.76 1.68 1.63 1.58 1.53 1.46 1.37 1.30 1.25 1.22 1.22 1.21 1.20 1.17 1.15 1.16 1.16 1.18 1.20 1.22 1.25 1.24 1.24 1.26 1.27 1.26 1.24 1.23 1.21 1.20 1.21 1.20 1.19 1.16 1.12 1.09 1.08 1.07 1.09 1.12 1.13 1.11 1.06 1.05 1.06 1.07 1.07 1.07 1.06 1.06 1.04 1.02 1.01 1.04 1.05 1.08 1.10 1.09 1.09 1.12 1.14 1.13 1.13 1.12 1.17 1.24 1.31 1.35 1.40 1.40 1.44 1.49 1.48 1.54 1.59 1.64 1.72 1.76
1.76 1.77 1.88 1.97 1.91 1.88 1.84 1.77 1.73 1.70 1.66 1.60 1.51 1.42 1.36 1.31 1.27 1.28 1.26 1.24 1.24 1.23 1.22 1.21 1.18 1.19 1.23 1.25 1.23 1.21 1.25 1.28 1.27 1.27 1.25 1.21 1.21 1.22 1.24 1.23 1.19 1.15 1.10 1.08 1.08 1.11 1.15 1.15 1.13 1.09 1.06 1.04 1.03 1.04 1.04 1.05 1.03 1.01 0.98 0.98 1.01 1.04 1.05 1.09 1.14 1.19 1.22 1.25 1.28 1.28 1.26 1.28 1.36 1.40 1.43 1.44 1.47 1.54 1.59 1.62 1.65 1.64 1.57 1.51 1.47
1.72 1.76 1.83 1.93 1.92 1.90 1.86 1.80 1.74 1.71 1.69 1.63 1.55 1.49 1.42 1.38 1.36 1.38 1.32 1.28 1.25 1.22 1.20 1.20 1.20 1.19 1.19 1.22 1.21 1.19 1.22 1.25 1.25 1.24 1.23 1.21 1.20 1.19 1.20 1.21 1.20 1.16 1.13 1.12 1.10 1.11 1.15 1.17 1.16 1.12 1.09 1.06 1.05 1.06 1.06 1.07 1.02 0.98 0.95 0.94 0.96 0.98 0.98 1.07 1.16 1.21 1.31 1.38 1.41 1.39 1.35 1.36 1.41 1.47 1.48 1.50 1.51 1.55 1.51 1.44 1.44 1.54 1.46 1.37 1.45
1.75 1.76 1.78 1.85 1.89 1.90 1.87 1.83 1.77 1.73 1.70 1.63 1.59 1.57 1.55 1.51 1.44 1.43 1.35 1.31 1.28 1.27 1.25 1.23 1.24 1.22 1.19 1.17 1.20 1.18 1.20 1.23 1.23 1.21 1.20 1.20 1.18 1.14 1.14 1.13 1.12 1.12 1.12 1.16 1.19 1.20 1.21 1.22 1.23 1.20 1.15 1.09 1.10 1.11 1.10 1.11 1.04 0.99 0.97 0.94 0.92 0.92 0.94 1.05 1.14 1.23 1.34 1.35 1.31 1.29 1.35 1.39 1.43 1.48 1.50 1.50 1.52 1.55 1.48 1.35 1.49 1.55 1.46 1.47 1.43
1.72 1.70 1.73 1.80 1.85 1.87 1.87 1.84 1.79 1.75 1.70 1.66 1.66 1.62 1.60 1.56 1.54 1.52 1.45 1.41 1.37 1.37 1.34 1.27 1.24 1.24 1.23 1.20 1.19 1.17 1.19 1.23 1.23 1.22 1.20 1.20 1.19 1.17 1.14 1.12 1.08 1.08 1.09 1.09 1.14 1.16 1.18 1.22 1.26 1.28 1.24 1.19 1.18 1.16 1.16 1.16 1.08 1.02 0.98 0.96 0.91 0.88 0.90 0.99 1.04 1.07 1.14 1.18 1.23 1.32 1.33 1.38 1.43 1.45 1.48 1.53 1.55 1.59 1.62 1.59 1.65 1.60 1.50 1.53 1.58
1.66 1.72 1.79 1.85 1.88 1.89 1.89 1.84 1.80 1.76 1.71 1.71 1.72 1.70 1.70 1.67 1.62 1.56 1.52 1.48 1.43 1.41 1.39 1.31 1.24 1.22 1.24 1.23 1.21 1.19 1.16 1.20 1.23 1.22 1.22 1.21 1.20 1.19 1.18 1.12 1.06 1.04 1.06 1.06 1.05 1.09 1.13 1.14 1.17 1.19 1.21 1.23 1.24 1.24 1.22 1.22 1.14 1.09 1.08 1.01 0.93 0.84 0.93 1.01 1.05 1.10 1.14 1.19 1.24 1.30 1.32 1.40 1.46 1.49 1.50 1.54 1.58 1.64 1.67 1.72 1.76 1.72 1.63 1.63 1.65
1.69 1.76 1.82 1.85 1.87 1.88 1.89 1.86 1.80 1.78 1.78 1.76 1.77 1.77 1.75 1.70 1.67 1.62 1.56 1.54 1.50 1.45 1.40 1.35 1.28 1.25 1.26 1.25 1.24 1.23 1.20 1.17 1.18 1.19 1.20 1.20 1.21 1.20 1.18 1.12 1.07 1.04 1.03 1.03 1.04 1.02 1.05 1.08 1.09 1.08 1.07 1.10 1.14 1.18 1.21 1.21 1.20 1.16 1.13 1.03 0.96 0.97 1.09 1.06 1.09 1.20 1.22 1.25 1.28 1.31 1.36 1.44 1.49 1.53 1.54 1.56 1.62 1.71 1.71 1.79 1.84 1.84 1.74 1.62 1.56
1.66 1.69 1.79 1.84 1.86 1.89 1.89 1.87 1.85 1.83 1.84 1.83 1.79 1.75 1.76 1.76 1.72 1.67 1.64 1.59 1.52 1.46 1.43 1.38 1.30 1.25 1.26 1.27 1.26 1.25 1.26 1.24 1.20 1.18 1.17 1.18 1.19 1.21 1.18 1.12 1.09 1.06 1.02 1.01 1.03 1.04 1.04 1.05 1.04 1.03 1.02 1.01 1.02 1.06 1.08 1.11 1.13 1.14 1.09 1.06 1.10 1.15 1.13 1.16 1.19 1.22 1.24 1.27 1.28 1.27 1.30 1.33 1.37 1.42 1.48 1.55 1.57 1.56 1.59 1.65 1.69 1.70 1.72 1.72 1.64
1.66 1.61 1.67 1.76 1.82 1.86 1.89 1.88 1.87 1.87 1.85 1.83 1.78 1.74 1.77 1.75 1.74 1.73 1.68 1.62 1.56 1.49 1.46 1.42 1.33 1.26 1.25 1.28 1.29 1.29 1.29 1.28 1.26 1.21 1.19 1.17 1.18 1.19 1.18 1.14 1.14 1.14 1.05 0.99 0.99 1.01 1.07 1.10 1.11 1.12 1.10 1.08 1.07 1.05 1.04 1.03 1.05 1.06 1.05 1.11 1.18 1.21 1.24 1.23 1.24 1.23 1.23 1.25 1.26 1.25 1.28 1.29 1.28 1.31 1.40 1.50 1.58 1.64 1.68 1.72 1.71 1.72 1.73 1.76 1.77
1.60 1.52 1.51 1.55 1.68 1.79 1.85 1.88 1.89 1.87 1.86 1.85 1.81 1.77 1.77 1.76 1.74 1.73 1.70 1.65 1.57 1.51 1.47 1.45 1.38 1.27 1.22 1.23 1.28 1.30 1.31 1.30 1.28 1.24 1.23 1.21 1.19 1.17 1.17 1.16 1.16 1.13 1.12 1.06 1.05 1.08 1.12 1.16 1.18 1.18 1.17 1.16 1.15 1.14 1.13 1.12 1.10 1.10 1.13 1.19 1.25 1.27 1.27 1.25 1.24 1.24 1.25 1.25 1.24 1.23 1.23 1.27 1.30 1.35 1.47 1.60 1.66 1.70 1.74 1.76 1.75 1.77 1.76 1.77 1.73
1.66 1.52 1.45 1.51 1.55 1.63 1.74 1.79 1.82 1.84 1.86 1.85 1.79 1.76 1.76 1.78 1.73 1.74 1.72 1.67 1.60 1.52 1.48 1.45 1.36 1.28 1.22 1.20 1.22 1.26 1.29 1.30 1.28 1.27 1.25 1.23 1.21 1.19 1.18 1.18 1.19 1.18 1.15 1.15 1.16 1.16 1.22 1.27 1.27 1.23 1.20 1.19 1.18 1.20 1.21 1.20 1.19 1.20 1.23 1.27 1.31 1.30 1.27 1.25 1.24 1.26 1.24 1.23 1.24 1.25 1.26 1.31 1.39 1.50 1.65 1.69 1.74 1.80 1.80 1.79 1.81 1.82 1.82 1.76 1.56
1.61 1.49 1.46 1.46 1.49 1.58 1.65 1.73 1.78 1.80 1.83 1.86 1.84 1.82 1.78 1.78 1.74 1.74 1.73 1.67 1.61 1.54 1.49 1.45 1.37 1.29 1.23 1.21 1.20 1.21 1.24 1.26 1.25 1.24 1.24 1.24 1.23 1.22 1.21 1.21 1.22 1.23 1.21 1.19 1.23 1.28 1.31 1.32 1.30 1.26 1.24 1.24 1.23 1.21 1.20 1.22 1.25 1.29 1.31 1.34 1.34 1.32 1.31 1.30 1.31 1.29 1.26 1.28 1.28 1.27 1.33 1.44 1.52 1.65 1.73 1.77 1.77 1.76 1.77 1.74 1.75 1.73 1.67 1.46 1.28
1.52 1.46 1.44 1.46 1.48 1.55 1.60 1.63 1.68 1.74 1.77 1.83 1.87 1.88 1.86 1.84 1.81 1.78 1.76 1.69 1.61 1.55 1.51 1.45 1.34 1.25 1.20 1.20 1.19 1.20 1.21 1.23 1.24 1.22 1.22 1.20 1.19 1.20 1.22 1.23 1.26 1.29 1.28 1.28 1.28 1.29 1.30 1.30 1.30 1.32 1.33 1.34 1.33 1.32 1.31 1.33 1.32 1.33 1.35 1.37 1.37 1.38 1.41 1.41 1.40 1.38 1.36 1.35 1.36 1.40 1.47 1.58 1.72 1.74 1.74 1.77 1.73 1.74 1.78 1.76 1.69 1.60 1.47 1.33 1.21
1.48 1.45 1.45 1.48 1.52 1.58 1.59 1.63 1.66 1.70 1.75 1.80 1.82 1.86 1.86 1.85 1.80 1.73 1.70 1.67 1.59 1.52 1.48 1.41 1.29 1.19 1.15 1.16 1.17 1.18 1.19 1.20 1.22 1.18 1.17 1.16 1.15 1.15 1.14 1.15 1.17 1.18 1.19 1.23 1.27 1.32 1.35 1.38 1.39 1.39 1.37 1.35 1.35 1.35 1.34 1.35 1.37 1.39 1.40 1.43 1.44 1.48 1.51 1.55 1.56 1.51 1.47 1.47 1.49 1.55 1.60 1.66 1.65 1.70 1.72 1.67 1.67 1.72 1.77 1.72 1.60 1.44 1.34 1.27 1.20
1.52 1.50 1.51 1.54 1.56 1.61 1.65 1.68 1.71 1.72 1.75 1.79 1.83 1.85 1.81 1.81 1.77 1.76 1.84 1.85 1.71 1.54 1.43 1.36 1.26 1.20 1.16 1.12 1.11 1.11 1.15 1.14 1.15 1.20 1.16 1.14 1.09 1.07 1.06 1.06 1.09 1.15 1.20 1.31 1.41 1.46 1.47 1.46 1.44 1.42 1.39 1.33 1.32 1.33 1.36 1.37 1.39 1.45 1.48 1.51 1.54 1.58 1.59 1.57 1.51 1.48 1.50 1.51 1.53 1.59 1.61 1.65 1.68 1.71 1.71 1.68 1.68 1.70 1.76 1.66 1.54 1.38 1.32 1.28 1.18
1.57 1.56 1.59 1.61 1.64 1.68 1.70 1.73 1.74 1.74 1.73 1.70 1.72 1.80 1.91 1.92 1.90 1.83 1.80 1.88 1.86 1.77 1.65 1.45 1.32 1.29 1.23 1.21 1.19 1.09 1.04 1.07 1.21 1.24 1.21 1.19 1.18 1.16 1.15 1.20 1.24 1.28 1.37 1.46 1.51 1.47 1.46 1.45 1.46 1.45 1.44 1.43 1.40 1.40 1.42 1.47 1.51 1.54 1.60 1.67 1.70 1.70 1.70 1.71 1.68 1.65 1.65 1.68 1.74 1.75 1.77 1.77 1.76 1.77 1.73 1.69 1.70 1.74 1.73 1.54 1.40 1.34 1.23 1.16 1.11
1.56 1.58 1.68 1.71 1.73 1.74 1.75 1.74 1.74 1.74 1.74 1.73 1.74 1.75 1.78 1.87 1.91 1.89 1.87 1.92 1.90 1.83 1.74 1.62 1.54 1.51 1.40 1.29 1.31 1.31 1.30 1.33 1.34 1.34 1.33 1.31 1.30 1.31 1.33 1.37 1.41 1.46 1.55 1.57 1.54 1.52 1.52 1.49 1.51 1.54 1.55 1.57 1.54 1.53 1.58 1.61 1.65 1.69 1.72 1.77 1.81 1.82 1.85 1.86 1.85 1.83 1.82 1.85 1.91 1.88 1.79 1.78 1.79 1.77 1.72 1.70 1.69 1.66 1.55 1.45 1.37 1.32 1.21 1.13 1.08
1.64 1.61 1.61 1.61 1.64 1.66 1.69 1.74 1.80 1.85 1.83 1.82 1.80 1.75 1.74 1.72 1.77 1.86 1.89 1.90 1.92 1.88 1.77 1.64 1.58 1.55 1.53 1.48 1.42 1.39 1.40 1.40 1.40 1.41 1.42 1.44 1.44 1.45 1.47 1.50 1.54 1.61 1.67 1.69 1.59 1.57 1.60 1.59 1.59 1.62 1.66 1.64 1.66 1.70 1.73 1.75 1.79 1.81 1.83 1.83 1.88 1.97 2.00 2.01 2.06 2.10 2.04 2.05 2.03 1.96 1.90 1.87 1.82 1.81 1.80 1.73 1.62 1.51 1.42 1.40 1.37 1.29 1.24 1.16 1.09
1.73 1.76 1.67 1.65 1.66 1.66 1.65 1.60 1.55 1.65 1.78 1.83 1.89 1.86 1.80 1.74 1.66 1.69 1.83 1.91 1.90 1.84 1.74 1.65 1.64 1.63 1.61 1.59 1.55 1.48 1.46 1.47 1.48 1.49 1.51 1.54 1.56 1.57 1.58 1.61 1.66 1.74 1.76 1.69 1.62 1.62 1.66 1.68 1.68 1.73 1.76 1.74 1.80 1.83 1.85 1.87 1.88 1.88 1.89 1.91 1.96 1.95 2.02 2.12 2.26 2.05 2.06 2.08 2.00 1.96 1.90 1.83 1.76 1.74 1.70 1.62 1.54 1.44 1.44 1.43 1.39 1.33 1.23 1.10 1.05
1.72 1.81 1.86 1.82 1.75 1.70 1.66 1.66 1.69 1.61 1.49 1.54 1.69 1.89 1.94 1.85 1.78 1.76 1.73 1.74 1.76 1.76 1.69 1.66 1.65 1.65 1.64 1.64 1.61 1.58 1.57 1.56 1.56 1.56 1.57 1.59 1.62 1.67 1.69 1.72 1.79 1.86 1.84 1.76 1.74 1.70 1.74 1.74 1.77 1.80 1.86 1.90 1.92 1.92 1.90 1.91 1.93 1.93 1.96 1.99 1.98 1.94 2.02 2.03 1.87 1.82 1.84 1.88 1.94 1.94 1.81 1.74 1.69 1.59 1.56 1.56 1.53 1.51 1.47 1.43 1.39 1.31 1.18 1.09 0.99
1.73 1.81 1.93 1.94 1.81 1.80 1.84 1.84 1.74 1.73 1.69 1.62 1.54 1.60 1.83 1.99 1.91 1.81 1.77 1.70 1.62 1.50 1.46 1.54 1.60 1.62 1.63 1.63 1.63 1.63 1.64 1.65 1.66 1.66 1.67 1.71 1.74 1.78 1.84 1.83 1.79 1.81 1.83 1.84 1.82 1.82 1.81 1.83 1.85 1.90 1.94 1.94 1.96 1.96 1.92 1.93 1.93 1.93 1.93 1.93 1.92 1.95 2.01 1.92 1.93 1.91 1.83 1.79 1.78 1.76 1.72 1.63 1.58 1.57 1.52 1.50 1.51 1.48 1.44 1.41 1.36 1.30 1.19 1.09 1.02
1.76 1.73 1.82 1.93 1.89 1.86 1.85 1.83 1.83 1.73 1.68 1.66 1.64 1.59 1.70 1.99 2.01 1.91 1.89 1.86 1.76 1.62 1.56 1.55 1.57 1.62 1.65 1.66 1.68 1.70 1.71 1.74 1.77 1.79 1.80 1.82 1.88 1.94 1.85 1.80 1.79 1.79 1.80 1.85 1.86 1.88 1.90 1.92 1.93 1.95 1.99 1.98 1.97 1.97 1.97 1.93 1.93 1.94 1.97 1.95 2.00 1.95 1.94 1.92 1.99 2.00 1.91 1.84 1.70 1.62 1.62 1.61 1.58 1.56 1.54 1.52 1.51 1.48 1.42 1.36 1.30 1.26 1.19 1.11 1.05
1.74 1.75 1.75 1.77 1.81 1.84 1.89 1.90 1.82 1.72 1.69 1.68 1.70 1.73 1.73 1.82 2.01 2.04 1.92 1.88 1.78 1.67 1.59 1.57 1.58 1.61 1.65 1.66 1.68 1.70 1.76 1.82 1.86 1.89 1.92 1.95 2.01 2.03 1.94 1.88 1.83 1.84 1.83 1.86 1.92 1.95 1.96 1.99 2.04 2.03 2.01 1.97 1.95 1.96 1.96 1.94 1.93 1.93 1.91 1.87 1.86 1.90 1.92 1.83 1.80 1.87 1.91 1.87 1.81 1.76 1.70 1.59 1.54 1.49 1.43 1.40 1.42 1.43 1.42 1.37 1.29 1.22 1.16 1.13 1.11
1.70 1.72 1.74 1.78 1.81 1.85 1.83 1.82 1.82 1.79 1.69 1.68 1.76 1.80 1.81 1.78 1.88 2.00 1.98 1.90 1.79 1.65 1.59 1.61 1.61 1.58 1.54 1.59 1.71 1.73 1.77 1.84 1.89 1.90 1.93 1.95 1.97 1.97 1.95 1.92 1.88 1.87 1.91 1.97 2.03 1.93 1.98 2.06 2.06 1.99 1.96 1.94 1.90 1.88 1.83 1.81 1.85 1.87 1.83 1.76 1.75 1.79 1.87 1.82 1.84 1.81 1.74 1.66 1.64 1.69 1.66 1.61 1.57 1.54 1.49 1.42 1.38 1.39 1.38 1.34 1.28 1.22 1.20 1.18 1.13
1.72 1.73 1.75 1.80 1.85 1.85 1.84 1.79 1.76 1.74 1.69 1.69 1.73 1.76 1.72 1.75 1.81 1.95 2.00 1.91 1.81 1.73 1.71 1.69 1.64 1.61 1.62 1.68 1.71 1.79 1.81 1.79 1.78 1.78 1.86 1.92 1.94 1.94 1.93 1.89 1.91 1.92 1.93 1.90 1.94 1.98 2.06 2.07 2.03 1.99 1.91 1.88 1.85 1.82 1.78 1.75 1.77 1.77 1.79 1.78 1.82 1.78 1.77 1.75 1.72 1.59 1.51 1.52 1.52 1.53 1.53 1.56 1.62 1.60 1.52 1.45 1.40 1.36 1.34 1.31 1.28 1.25 1.20 1.16 1.14
1.76 1.73 1.74 1.82 1.86 1.84 1.80 1.73 1.68 1.65 1.67 1.73 1.81 1.87 1.86 1.87 1.84 1.88 1.92 1.94 1.83 1.78 1.73 1.67 1.65 1.67 1.74 1.78 1.79 1.84 1.79 1.79 1.82 1.83 1.81 1.81 1.83 1.87 1.89 1.86 1.83 1.81 1.82 1.84 1.89 1.95 1.96 1.95 1.91 1.84 1.80 1.79 1.79 1.77 1.76 1.73 1.70 1.68 1.68 1.71 1.84 1.89 1.86 1.80 1.65 1.54 1.52 1.51 1.46 1.45 1.47 1.52 1.61 1.64 1.55 1.48 1.42 1.41 1.37 1.33 1.29 1.26 1.21 1.16 1.14
1.73 1.75 1.73 1.75 1.78 1.80 1.80 1.77 1.68 1.62 1.65 1.76 1.87 1.90 1.84 1.85 1.90 1.92 1.89 1.91 1.86 1.78 1.73 1.73 1.75 1.82 1.88 1.91 1.95 1.94 1.88 1.83 1.80 1.79 1.79 1.80 1.81 1.82 1.83 1.83 1.83 1.82 1.83 1.83 1.83 1.82 1.81 1.78 1.76 1.76 1.76 1.77 1.78 1.76 1.73 1.69 1.67 1.67 1.68 1.69 1.68 1.64 1.63 1.62 1.54 1.51 1.50 1.49 1.48 1.44 1.41 1.40 1.45 1.51 1.52 1.52 1.51 1.47 1.45 1.42 1.37 1.34 1.30 1.25 1.22
1.71 1.69 1.68 1.68 1.72 1.75 1.76 1.72 1.71 1.73 1.79 1.85 1.92 1.88 1.84 1.83 1.87 1.91 1.79 1.85 1.89 1.82 1.77 1.78 1.82 1.87 1.91 1.93 1.92 1.92 1.88 1.86 1.85 1.83 1.82 1.82 1.81 1.80 1.81 1.81 1.81 1.80 1.77 1.77 1.77 1.78 1.79 1.78 1.75 1.75 1.75 1.74 1.71 1.70 1.70 1.68 1.67 1.65 1.61 1.59 1.58 1.57 1.56 1.52 1.48 1.46 1.41 1.38 1.38 1.39 1.38 1.37 1.39 1.43 1.48 1.52 1.50 1.46 1.44 1.42 1.40 1.35 1.32 1.29 1.25
1.74 1.71 1.68 1.65 1.62 1.65 1.70 1.72 1.76 1.78 1.78 1.79 1.83 1.84 1.80 1.81 1.88 1.96 1.87 1.87 1.91 1.86 1.84 1.82 1.83 1.85 1.86 1.87 1.88 1.87 1.84 1.80 1.78 1.76 1.75 1.75 1.75 1.75 1.74 1.75 1.75 1.76 1.76 1.76 1.77 1.78 1.77 1.73 1.70 1.67 1.65 1.66 1.67 1.66 1.65 1.64 1.63 1.63 1.60 1.55 1.54 1.51 1.45 1.39 1.39 1.38 1.37 1.36 1.37 1.38 1.37 1.40 1.43 1.46 1.46 1.45 1.44 1.43 1.42 1.39 1.38 1.37 1.34 1.31 1.25
1.74 1.71 1.68 1.65 1.67 1.66 1.64 1.71 1.79 1.83 1.88 1.86 1.85 1.85 1.78 1.83 1.94 1.90 1.85 1.93 1.87 1.87 1.90 1.85 1.84 1.82 1.79 1.77 1.77 1.74 1.69 1.67 1.65 1.65 1.65 1.67 1.68 1.69 1.70 1.72 1.73 1.73 1.71 1.70 1.71 1.72 1.73 1.72 1.69 1.67 1.67 1.70 1.72 1.73 1.71 1.70 1.68 1.64 1.61 1.57 1.53 1.48 1.43 1.39 1.39 1.41 1.39 1.37 1.37 1.37 1.38 1.38 1.40 1.43 1.42 1.41 1.39 1.38 1.38 1.37 1.35 1.34 1.30 1.27 1.22
1.74 1.69 1.68 1.69 1.71 1.74 1.77 1.84 1.88 1.90 1.91 1.89 1.89 1.86 1.89 1.94 1.88 1.81 1.85 1.81 1.88 1.90 1.87 1.83 1.77 1.70 1.64 1.57 1.52 1.47 1.47 1.50 1.54 1.58 1.61 1.64 1.65 1.67 1.70 1.70 1.69 1.65 1.65 1.66 1.68 1.70 1.72 1.71 1.68 1.64 1.63 1.65 1.68 1.69 1.67 1.64 1.62 1.60 1.58 1.56 1.51 1.44 1.40 1.44 1.48 1.51 1.52 1.48 1.48 1.48 1.47 1.46 1.44 1.43 1.40 1.38 1.37 1.35 1.34 1.33 1.31 1.29 1.25 1.19 1.14
1.63 1.69 1.63 1.62 1.69 1.75 1.74 1.73 1.82 1.87 1.87 1.82 1.79 1.80 1.78 1.82 1.83 1.80 1.80 1.86 1.84 1.78 1.73 1.64 1.54 1.47 1.43 1.41 1.40 1.41 1.43 1.45 1.48 1.52 1.56 1.59 1.61 1.62 1.63 1.62 1.60 1.58 1.58 1.59 1.63 1.66 1.67 1.66 1.63 1.63 1.64 1.64 1.63 1.61 1.60 1.59 1.56 1.53 1.51 1.49 1.41 1.37 1.37 1.40 1.46 1.49 1.51 1.52 1.52 1.50 1.48 1.44 1.41 1.40 1.37 1.32 1.30 1.30 1.28 1.27 1.23 1.19 1.14 1.10 1.09
1.52 1.53 1.61 1.63 1.60 1.60 1.66 1.77 1.80 1.83 1.85 1.88 1.82 1.80 1.85 1.80 1.78 1.78 1.77 1.76 1.68 1.59 1.51 1.48 1.46 1.44 1.43 1.42 1.42 1.44 1.46 1.48 1.51 1.53 1.56 1.58 1.57 1.56 1.55 1.54 1.53 1.55 1.59 1.62 1.65 1.66 1.66 1.64 1.61 1.58 1.56 1.56 1.56 1.56 1.51 1.44 1.38 1.34 1.33 1.32 1.32 1.32 1.35 1.39 1.42 1.44 1.45 1.45 1.42 1.38 1.35 1.34 1.33 1.32 1.30 1.28 1.26 1.23 1.19 1.16 1.13 1.10 1.09 1.08 1.07
1.45 1.48 1.49 1.53 1.55 1.57 1.55 1.59 1.66 1.77 1.79 1.78 1.78 1.80 1.79 1.79 1.76 1.74 1.72 1.68 1.62 1.57 1.52 1.47 1.44 1.42 1.41 1.41 1.42 1.44 1.47 1.49 1.50 1.52 1.53 1.52 1.51 1.49 1.50 1.51 1.51 1.53 1.54 1.53 1.52 1.52 1.51 1.48 1.47 1.48 1.47 1.47 1.45 1.39 1.34 1.33 1.34 1.34 1.33 1.31 1.31 1.34 1.34 1.36 1.39 1.41 1.43 1.42 1.38 1.33 1.29 1.27 1.27 1.26 1.23 1.19 1.16 1.13 1.08 1.05 1.05 1.04 1.03 1.02 1.01
1.33 1.36 1.41 1.45 1.45 1.43 1.47 1.54 1.52 1.55 1.63 1.71 1.74 1.73 1.72 1.74 1.75 1.74 1.71 1.67 1.62 1.59 1.56 1.52 1.48 1.47 1.45 1.43 1.42 1.42 1.42 1.43 1.45 1.48 1.50 1.52 1.55 1.55 1.52 1.48 1.45 1.44 1.45 1.40 1.40 1.41 1.41 1.41 1.41 1.41 1.39 1.35 1.31 1.30 1.31 1.31 1.29 1.27 1.27 1.29 1.32 1.34 1.35 1.36 1.36 1.35 1.36 1.35 1.31 1.28 1.25 1.23 1.19 1.17 1.15 1.11 1.07 1.05 1.02 0.99 0.95 0.90 0.87 0.84 0.83
1.22 1.27 1.32 1.35 1.35 1.33 1.34 1.38 1.43 1.46 1.47 1.53 1.59 1.61 1.65 1.68 1.66 1.67 1.66 1.64 1.62 1.61 1.59 1.55 1.52 1.51 1.52 1.53 1.56 1.52 1.56 1.61 1.58 1.56 1.53 1.51 1.52 1.51 1.46 1.39 1.36 1.36 1.36 1.33 1.34 1.38 1.36 1.33 1.29 1.25 1.23 1.23 1.23 1.21 1.19 1.19 1.21 1.24 1.26 1.27 1.29 1.29 1.27 1.27 1.27 1.26 1.24 1.21 1.19 1.16 1.13 1.10 1.08 1.06 1.05 1.03 1.00 0.97 0.93 0.87 0.81 0.76 0.71 0.70 0.71
1.17 1.16 1.17 1.23 1.28 1.31 1.35 1.31 1.30 1.35 1.36 1.37 1.38 1.44 1.49 1.50 1.54 1.64 1.63 1.59 1.57 1.54 1.52 1.50 1.47 1.46 1.46 1.49 1.51 1.51 1.50 1.50 1.51 1.50 1.49 1.47 1.46 1.47 1.45 1.41 1.36 1.32 1.29 1.28 1.27 1.31 1.31 1.31 1.31 1.29 1.29 1.27 1.25 1.22 1.18 1.17 1.17 1.17 1.18 1.19 1.21 1.22 1.21 1.20 1.17 1.15 1.14 1.13 1.11 1.09 1.07 1.03 1.00 0.97 0.93 0.89 0.86 0.82 0.77 0.76 0.72 0.68 0.65 0.64 0.64
Wind_Speed
30 29 29 29 29 29 29 28 28 28 27 27 26 26 25 24 23 22 22 21 20 19 18 17 16 15 15 14 13 13 13 12 11 10 10 9 9 8 8 8 8 8 7 7 7 6 5 5 5 5 4 4 4 5 5 6 6 6 5 4 4 3 3 3 3 3 3 2 3 4 4 5 6 7 7 8 8 9 10 11 12 13 14 15 16
30 30 29 29 29 29 29 29 28 28 28 28 27 27 26 25 24 24 23 22 21 21 19 18 18 17 16 15 15 14 14 13 13 12 11 10 9 9 8 8 8 8 8 8 8 7 7 7 6 6 5 5 5 5 6 7 7 7 6 6 6 5 5 4 4 5 5 5 5 5 5 6 6 7 7 8 8 9 10 11 12 12 14 15 16
30 30 29 30 30 30 29 29 29 29 29 28 28 28 27 26 26 25 24 23 22 22 21 20 19 18 18 17 16 16 15 15 14 13 12 11 11 10 9 9 9 9 9 9 9 9 8 8 8 7 6 6 6 6 7 7 8 8 8 8 8 7 6 6 6 6 6 7 6 6 6 6 7 7 8 8 8 9 10 11 12 13 13 15 16
28 29 30 30 30 30 30 29 29 29 29 29 29 28 28 27 27 26 25 25 24 23 22 21 20 19 19 19 18 17 16 16 15 15 14 13 12 11 11 10 10 10 10 10 10 9 10 10 9 9 8 8 8 8 8 8 9 9 9 9 9 9 8 8 8 7 7 7 7 7 7 7 8 8 8 9 9 9 10 12 12 13 13 15 16
27 28 30 30 30 31 31 30 30 30 29 29 29 29 28 28 27 27 26 26 25 24 23 23 22 21 20 21 20 19 18 17 17 16 15 14 13 13 12 11 11 11 11 11 10 10 10 11 11 10 10 10 9 9 9 9 9 10 10 11 10 10 9 9 9 8 8 9 9 8 8 8 9 9 9 9 10 10 11 12 12 13 14 15 17
26 27 28 29 30 31 31 31 30 30 30 29 29 29 29 28 28 28 27 26 26 25 24 24 23 22 22 22 21 20 20 19 18 18 17 16 15 14 13 13 12 12 12 12 11 11 11 11 12 12 12 11 11 11 11 10 10 10 11 12 11 11 10 10 10 9 9 10 10 9 9 9 10 10 10 10 11 11 11 12 13 14 14 15 17
26 26 26 27 29 30 31 31 31 31 30 29 29 29 29 29 28 28 28 27 26 26 25 25 24 23 23 22 22 21 21 20 20 19 18 17 16 15 15 14 14 13 13 13 13 12 12 12 12 12 13 13 13 12 12 12 12 11 12 12 12 12 12 12 11 11 11 10 10 10 10 10 10 11 11 11 11 12 12 13 14 14 14 15 17
26 26 25 26 27 28 30 30 30 30 30 30 29 29 29 29 28 28 28 28 27 26 26 25 25 24 24 23 23 22 22 21 21 20 20 19 18 17 16 15 15 14 14 14 14 14 13 13 13 13 13 14 14 14 13 13 13 13 12 13 13 13 13 13 13 12 12 11 11 11 11 11 11 12 12 12 12 13 12 13 14 14 15 16 18
27 26 26 25 26 26 28 29 30 30 30 30 30 29 29 29 28 28 28 28 28 27 26 26 25 25 24 24 23 23 23 22 22 22 21 20 19 18 17 16 16 15 15 15 15 15 15 14 14 14 14 15 15 15 15 14 14 13 13 13 14 14 14 14 14 13 13 13 12 12 12 12 13 13 13 13 13 13 13 13 15 16 17 18 19
28 27 26 26 25 25 26 27 28 29 30 30 30 29 29 29 29 29 28 28 28 27 27 27 26 26 25 24 24 23 23 23 23 23 23 22 20 19 18 18 17 16 16 16 16 16 16 15 15 15 15 16 15 15 15 15 15 15 14 14 14 14 15 15 15 15 14 14 14 13 13 13 13 13 13 13 14 14 14 15 15 16 17 18 19
29 29 28 27 26 25 25 26 26 27 29 29 30 30 29 29 29 29 28 28 28 27 27 27 27 26 26 25 25 24 24 24 24 24 24 23 22 21 19 19 18 18 17 17 17 17 16 16 16 16 16 16 16 16 16 16 16 16 16 16 15 15 15 15 15 15 15 15 15 14 14 15 14 14 14 14 14 15 15 15 15 16 17 18 19
31 30 29 28 27 26 25 25 26 26 27 28 29 29 29 29 29 29 29 29 28 28 27 27 27 27 26 26 25 25 24 24 24 24 24 24 24 22 21 20 19 19 19 18 18 18 17 17 17 17 17 17 17 17 17 17 18 18 18 17 17 17 16 16 16 16 16 16 16 16 16 16 15 15 15 15 15 15 15 15 16 17 17 18 20
31 31 30 29 28 28 27 26 26 26 26 27 27 28 28 29 29 29 29 29 29 28 28 27 27 27 26 26 26 25 25 25 25 25 24 25 24 23 22 21 20 20 20 20 19 19 18 18 18 17 17 17 17 17 17 17 18 18 18 18 18 18 18 17 17 16 16 16 17 17 17 16 16 16 16 16 16 16 16 16 17 17 18 19 20
30 30 30 31 29 29 28 27 27 26 26 26 26 27 27 28 28 29 29 29 29 29 29 28 28 27 27 26 26 25 25 25 25 25 25 25 25 24 23 22 22 21 20 20 20 20 20 19 19 18 18 18 18 18 18 18 18 18 18 18 18 18 18 18 18 17 17 17 17 17 17 17 17 17 16 16 17 17 17 17 18 18 19 20 21
31 29 29 31 30 29 29 28 27 27 26 26 26 26 27 27 27 27 28 28 29 29 29 29 29 28 27 27 26 26 25 25 25 25 24 24 24 24 24 23 22 22 21 21 21 21 21 20 20 19 19 19 19 19 19 19 19 19 19 19 19 19 19 18 18 18 17 17 17 17 17 17 17 18 17 17 18 18 18 18 19 19 19 20 21
31 30 29 30 31 30 30 29 28 28 27 26 26 26 27 27 27 27 26 27 28 28 29 30 29 29 28 28 27 26 26 26 25 25 25 24 23 23 24 24 23 22 22 21 21 21 21 21 21 20 20 20 20 20 20 19 20 20 20 20 20 20 19 19 19 19 19 18 17 17 18 18 18 18 18 18 19 19 19 19 20 20 20 21 21
31 31 30 31 32 31 30 30 29 28 28 27 27 27 27 27 27 27 26 26 26 27 28 29 30 30 29 29 28 27 27 26 26 26 25 25 24 23 24 24 23 23 22 22 22 21 21 21 21 21 21 20 20 20 20 20 20 20 20 20 20 20 20 20 20 20 20 20 19 19 20 20 19 19 19 20 20 19 20 21 21 21 20 20 21
31 32 31 31 32 32 32 31 30 30 29 28 28 28 27 27 27 27 27 26 26 26 27 28 29 30 30 30 29 28 28 27 27 27 26 26 25 24 24 24 24 24 23 22 22 22 22 22 22 21 21 21 21 21 21 20 20 21 21 21 21 21 20 20 20 20 21 21 21 21 21 21 20 20 20 21 21 20 21 22 22 21 21 21 21
32 32 33 32 33 33 33 32 32 31 30 29 29 29 28 28 28 28 27 27 26 25 25 26 28 29 30 31 30 30 29 28 28 28 27 27 26 25 25 25 25 24 24 23 23 23 22 22 22 22 22 21 21 21 21 21 21 21 21 21 22 22 21 21 21 21 21 21 21 21 20 20 20 20 20 21 21 21 22 22 22 22 22 22 21
32 32 32 33 33 34 34 33 33 32 31 31 30 30 29 29 28 28 28 28 27 26 25 26 27 28 30 30 31 31 30 29 28 28 28 28 27 27 26 26 26 25 25 24 24 24 23 23 23 23 23 22 22 22 22 22 22 22 22 22 23 22 22 22 22 22 21 21 21 21 20 20 20 20 20 21 21 21 22 23 22 22 22 22 21
32 32 32 33 34 34 35 34 34 34 33 32 31 30 30 30 29 29 29 28 28 27 26 25 26 27 29 30 30 31 31 30 30 30 29 29 28 28 27 27 27 27 26 26 25 25 24 24 23 24 24 24 23 23 23 23 22 22 22 23 23 23 23 23 23 22 22 22 21 21 21 20 20 20 21 21 21 21 22 22 22 22 21 21 21
32 33 33 33 34 34 35 35 35 34 34 33 32 32 31 31 30 30 30 29 29 28 27 26 26 26 28 29 30 30 31 30 30 30 30 30 30 29 29 28 28 28 27 27 26 26 25 24 24 24 24 24 24 24 24 24 23 23 23 24 23 23 23 23 23 23 22 22 22 22 22 22 22 22 22 22 22 22 22 22 21 21 21 21 21
32 34 34 34 34 34 35 35 35 35 34 34 34 33 32 32 31 31 30 30 29 29 28 27 26 26 27 28 29 29 30 30 30 30 30 30 30 30 30 29 29 29 28 28 27 27 26 25 24 24 24 24 24 24 24 24 24 24 24 24 23 23 23 23 23 23 24 23 23 24 24 24 23 23 23 22 22 22 22 22 21 21 21 21 21
33 35 36 36 35 35 34 35 35 35 35 35 35 34 33 33 32 32 31 31 30 29 29 28 27 27 27 27 28 28 28 29 29 29 29 29 29 29 29 29 29 29 29 28 27 27 26 26 25 25 24 24 24 24 24 24 24 23 24 23 23 23 23 23 24 24 25 25 25 25 25 25 24 24 23 23 23 23 22 22 21 21 21 21 21
33 36 37 36 36 35 35 35 35 35 35 35 35 35 34 34 33 33 32 32 31 30 29 29 28 28 28 28 28 28 28 28 28 28 29 29 28 28 28 28 29 29 28 28 27 27 26 26 26 25 25 25 24 24 24 24 24 24 23 23 23 23 24 24 25 25 25 26 26 26 25 25 24 23 23 23 22 22 22 22 22 21 21 21 21
34 36 37 36 36 36 35 35 35 35 35 35 35 35 35 35 34 34 33 32 31 31 30 30 29 29 28 28 28 28 28 28 28 28 28 28 28 28 27 28 28 28 28 27 27 26 26 26 26 25 25 25 24 24 24 24 24 24 24 24 24 24 25 25 25 25 26 26 26 25 25 24 23 23 23 22 22 22 22 22 22 21 21 21 20
35 36 37 37 36 36 35 35 35 34 34 35 35 35 35 35 35 35 34 33 32 31 30 30 30 29 29 29 28 28 28 27 27 27 28 27 27 27 27 27 27 27 27 26 26 26 26 25 25 25 24 24 24 24 24 24 24 24 24 24 24 25 25 25 25 25 25 25 25 25 24 23 23 23 23 22 22 22 22 21 21 21 21 20 19
36 37 38 37 36 36 36 35 35 34 34 35 35 35 36 36 36 36 35 34 33 32 31 30 30 30 30 29 29 28 27 27 27 27 27 27 27 26 26 26 26 26 26 26 25 25 26 25 25 25 24 24 24 23 23 24 24 24 24 24 24 25 25 25 25 25 25 25 25 24 24 23 23 23 22 22 22 22 21 21 20 20 19 19 19
37 38 39 38 37 37 36 35 35 35 35 35 36 36 36 36 36 36 36 35 34 33 32 30 30 30 30 30 29 28 27 27 27 28 28 27 27 26 26 26 26 26 26 26 25 25 25 25 25 25 24 24 24 24 24 24 24 24 24 24 25 25 25 25 25 25 25 24 24 23 23 22 22 22 21 21 21 21 21 20 20 19 19 19 20
38 39 39 38 38 38 37 37 36 36 36 36 36 36 36 36 36 35 35 36 36 35 33 32 31 30 30 30 30 29 28 27 27 27 27 27 27 26 26 26 25 25 26 26 26 25 25 25 25 25 25 24 24 24 24 24 24 24 24 25 25 25 25 26 26 25 24 23 23 22 22 22 21 21 21 21 21 21 20 19 19 19 19 19 20
37 38 38 37 38 38 38 37 37 38 38 37 37 37 36 36 35 34 34 35 36 36 34 33 32 31 30 30 30 30 29 28 27 27 27 27 27 27 26 26 26 26 26 26 26 25 24 24 24 25 24 24 24 24 24 24 24 24 25 25 26 26 26 26 25 24 24 23 22 21 21 22 22 21 21 21 20 20 19 19 19 19 19 20 20
35 37 38 38 38 38 38 38 37 38 38 38 38 38 38 37 35 34 33 33 34 35 34 32 31 31 31 30 30 29 29 29 28 28 28 28 27 27 27 27 27 26 26 26 25 25 25 25 24 24 24 24 24 24 24 24 24 25 25 26 27 27 26 25 24 23 22 21 19 19 20 21 21 21 21 20 20 20 19 20 20 20 20 20 19
35 36 37 37 38 39 40 39 39 39 40 39 38 38 38 38 36 34 33 32 32 32 32 31 31 31 31 31 30 30 29 29 29 29 29 28 28 28 27 27 27 26 26 25 25 25 25 25 24 24 24 24 24 24 24 25 25 25 25 26 25 25 24 23 21 20 20 20 20 20 20 21 21 22 21 21 21 20 20 20 20 20 20 19 19
36 36 37 37 38 38 39 39 40 40 41 41 40 38 38 38 37 35 33 32 32 31 30 30 30 30 30 30 30 30 29 29 29 29 29 29 28 28 27 26 26 26 26 25 25 25 25 25 25 24 24 24 24 24 25 25 25 25 25 25 24 24 24 23 21 20 20 20 21 21 21 21 21 22 22 22 21 20 20 20 20 20 20 20 20
36 37 37 38 38 38 38 38 39 40 40 40 40 40 39 38 37 37 35 34 33 31 30 30 29 29 29 29 28 28 29 29 29 28 28 28 27 27 26 25 25 25 26 25 25 25 25 24 24 24 24 24 24 25 25 25 25 25 25 25 25 24 23 22 20 20 20 20 20 21 21 21 21 22 22 22 21 21 20 20 20 20 20 20 21
36 37 37 37 37 37 37 38 38 39 39 39 40 41 40 39 38 38 37 36 34 32 31 30 29 28 28 28 28 27 28 28 28 27 27 27 27 27 26 26 26 26 26 26 26 25 24 24 24 24 23 24 24 24 24 24 24 24 25 26 25 23 22 20 20 20 21 21 21 22 22 21 21 22 22 22 22 21 21 21 20 20 20 21 22
34 36 37 37 37 37 37 38 38 38 39 39 39 40 41 40 38 38 37 36 35 33 32 31 30 29 28 28 28 27 27 27 27 26 26 27 28 27 27 27 26 26 26 25 25 25 24 23 23 23 23 23 23 23 24 24 24 24 24 24 23 22 21 21 21 22 23 23 23 23 22 21 21 21 22 22 22 22 22 21 21 21 22 22 22
33 34 35 36 37 37 37 37 37 37 38 38 39 39 41 40 39 38 38 37 35 34 33 31 30 29 29 28 28 28 27 27 26 26 26 26 27 26 26 26 26 25 25 24 24 24 23 23 23 22 22 22 23 23 23 23 22 22 22 23 22 21 21 21 22 22 23 23 23 23 23 22 22 21 21 21 21 21 21 22 22 23 23 23 23
32 33 33 34 35 36 36 36 36 36 37 38 38 39 40 41 41 40 38 36 35 33 33 31 30 29 29 28 28 28 27 27 26 26 26 26 25 25 25 25 25 24 24 24 24 23 23 22 22 22 22 22 22 22 22 22 22 22 23 24 24 23 22 22 23 24 24 23 22 22 22 22 22 21 20 20 20 20 21 22 23 23 23 24 24
30 31 31 32 33 34 34 34 34 34 35 36 37 38 39 40 41 41 39 36 34 33 32 31 29 29 29 28 28 27 27 26 26 25 25 25 24 24 24 24 24 23 23 23 23 22 22 22 22 21 21 22 22 22 23 23 23 23 23 23 24 24 23 22 23 23 23 23 22 22 22 21 21 20 20 20 20 20 21 22 23 23 24 24 25
27 28 29 29 30 31 32 32 32 32 33 33 34 36 38 39 40 40 39 36 34 32 31 29 29 28 28 27 27 27 26 26 25 25 24 24 24 23 23 23 23 23 22 23 23 22 22 22 22 22 23 23 23 24 24 24 24 24 23 23 24 24 24 24 23 22 22 22 22 22 22 21 21 21 22 22 22 22 23 23 24 24 25 25 26
25 26 26 27 27 29 30 30 31 31 32 32 32 34 36 38 38 39 39 36 33 32 30 28 27 27 27 26 26 26 26 25 25 25 24 24 24 23 23 22 22 22 22 22 23 23 22 22 22 23 23 24 24 24 25 25 25 24 24 24 25 25 24 24 23 23 23 23 23 22 22 22 22 22 22 23 24 24 25 25 26 26 26 27 27
23 23 23 23 24 26 27 28 29 29 30 30 31 32 34 35 35 36 36 34 32 31 29 27 26 26 25 25 25 24 24 24 24 24 24 24 23 23 22 22 22 22 22 22 23 23 23 23 23 23 23 24 25 25 25 26 26 25 25 25 25 25 25 24 24 24 24 24 24 23 22 22 22 23 23 24 25 26 26 27 27 27 28 28 29
17 19 20 21 21 21 22 23 25 26 27 28 28 30 31 32 32 33 32 29 27 26 25 25 25 24 24 23 23 23 23 23 23 23 23 23 22 22 22 22 22 22 22 22 23 23 23 23 22 23 23 24 24 25 25 25 25 25 26 25 25 25 24 24 25 25 25 24 23 23 23 23 24 24 25 26 26 27 27 28 28 29 29 30 31
12 14 16 17 18 18 18 19 20 21 23 24 25 26 27 28 28 29 28 25 22 22 22 22 23 23 22 22 22 22 22 22 22 22 22 21 21 21 21 21 21 21 21 21 22 22 22 22 22 22 23 24 24 24 24 24 24 25 25 25 25 25 25 25 25 25 24 24 24 24 24 25 25 26 27 27 28 28 29 29 30 30 31 32 32
13 12 13 14 13 14 16 18 18 19 20 21 22 22 23 25 26 26 25 23 21 20 21 21 21 21 21 21 22 22 22 22 21 21 21 20 20 20 20 20 20 20 20 20 21 21 22 22 22 23 23 24 24 24 24 24 24 24 25 25 25 26 26 25 25 25 24 24 25 25 25 26 27 27 28 28 29 29 30 31 31 32 32 33 33
15 14 14 14 13 12 13 14 16 16 18 19 20 20 21 24 26 26 25 23 21 20 20 20 20 21 21 21 21 21 21 21 20 20 20 19 19 19 19 19 19 20 20 21 21 22 22 22 22 22 22 23 23 23 24 24 23 23 24 25 25 26 26 25 24 24 24 25 25 25 26 27 27 28 28 29 30 30 31 31 32 33 33 33 34
17 16 15 15 15 14 13 13 14 15 15 16 17 19 20 22 24 25 24 23 21 20 20 20 20 21 21 20 21 21 21 21 20 20 19 19 19 19 19 19 19 19 20 21 21 21 21 21 21 21 21 22 22 23 23 23 23 23 23 24 24 24 24 24 24 24 24 25 25 26 26 27 28 29 29 30 30 31 31 32 33 33 34 34 35
18 17 17 16 16 16 16 15 15 15 15 15 15 17 19 20 21 22 23 22 21 21 20 20 20 20 20 20 21 22 22 22 21 20 19 19 18 18 18 18 18 18 19 19 20 20 20 19 19 20 21 21 21 21 21 21 22 22 23 23 23 23 23 24 24 25 26 26 27 27 28 29 29 30 30 30 31 32 32 33 33 34 34 35 35
19 18 18 17 17 17 18 17 17 17 17 17 17 17 18 19 20 21 22 22 21 21 21 21 20 20 21 21 21 21 21 20 20 20 20 19 18 18 18 18 18 18 19 19 20 19 19 19 19 20 20 20 20 20 21 21 22 22 23 23 23 23 23 24 25 26 27 28 28 29 30 30 31 31 31 32 32 33 33 34 34 35 35 36 36
19 18 18 18 18 18 18 18 18 18 18 18 18 18 19 19 19 20 21 21 21 22 22 22 21 21 21 21 21 21 21 20 19 19 19 19 18 18 17 18 18 18 19 19 20 20 20 19 19 19 19 19 20 21 21 22 22 23 24 24 24 25 25 26 27 27 28 29 30 30 31 32 32 33 33 34 34 34 34 35 35 36 36 36 37
Wind_Direction
210 210 209 209 209 210 211 212 212 212 212 212 213 214 216 217 218 218 218 219 219 218 219 220 220 220 219 219 218 215 212 210 209 209 208 209 210 212 214 214 217 219 220 222 223 223 222 221 218 215 211 209 208 205 205 204 202 203 205 206 211 216 222 232 253 274 283 293 304 318 332 336 338 342 344 343 343 342 340 339 340 341 342 343 343
210 211 210 210 210 211 212 213 213 213 213 214 214 215 216 218 219 220 221 221 221 222 222 222 222 222 222 222 221 219 216 213 213 213 213 213 214 216 217 218 221 224 226 228 229 228 228 231 231 225 219 219 219 217 217 216 215 216 218 224 231 235 238 243 253 267 279 290 298 306 317 325 331 337 338 338 340 341 341 343 344 344 344 345 345
211 212 211 211 211 211 212 213 214 214 215 215 216 216 217 218 219 221 222 223 224 224 225 224 223 222 223 224 224 223 220 218 216 216 217 217 218 219 220 221 224 228 230 232 234 233 233 236 239 236 229 226 227 228 227 226 225 226 228 229 232 238 243 247 253 260 269 279 287 295 304 312 319 326 329 331 335 337 339 341 343 344 344 344 343
211 212 213 212 211 212 212 213 214 215 216 217 217 217 218 219 220 221 223 224 225 226 226 227 226 224 223 224 225 225 224 222 220 219 219 221 222 223 224 226 227 230 234 235 236 237 237 238 240 241 238 235 234 235 235 235 234 234 235 234 234 239 244 247 252 258 264 271 280 288 295 303 310 317 321 324 327 331 333 335 337 340 341 340 340
211 213 214 214 212 212 213 213 214 215 216 217 218 218 219 220 221 222 223 224 225 226 227 227 227 226 224 224 226 227 226 225 224 223 222 223 225 226 228 229 230 232 235 238 239 240 240 241 242 242 241 241 240 239 240 240 240 240 241 241 240 242 245 249 254 259 265 272 280 286 292 299 305 310 314 318 322 326 329 332 334 336 337 338 338
210 212 214 214 214 213 213 214 214 215 217 218 218 218 219 220 221 222 223 224 224 226 227 227 227 226 225 225 226 227 227 227 226 226 225 225 227 229 231 232 234 235 237 240 242 243 242 243 243 243 243 243 243 243 243 243 244 244 244 244 244 245 248 253 257 261 267 272 277 283 291 297 300 305 310 314 317 321 324 327 330 333 334 336 338
210 211 212 214 214 214 214 214 215 216 217 218 219 219 219 220 221 222 223 224 224 225 226 226 226 227 226 226 227 227 228 227 227 227 228 227 228 230 233 235 236 237 240 241 243 244 244 245 245 245 244 244 245 245 245 245 246 247 246 245 245 247 250 254 257 260 265 270 274 279 288 295 297 301 307 311 313 315 318 321 325 330 333 334 336
211 211 211 213 214 214 214 215 216 216 218 219 219 219 220 220 221 222 223 223 224 225 225 226 226 227 227 228 228 228 228 228 228 228 228 229 230 231 233 236 238 239 241 242 244 245 245 246 246 246 246 246 246 246 247 247 248 249 249 248 248 248 250 253 256 259 263 268 272 278 284 290 295 299 304 308 309 312 316 318 321 326 330 331 332
212 212 211 212 214 214 214 215 215 216 217 219 220 220 221 221 221 222 223 224 224 225 225 226 226 227 227 228 228 229 229 229 229 228 229 230 231 232 234 236 238 240 242 243 245 245 245 246 247 247 248 247 246 246 247 247 248 249 250 250 249 249 250 252 254 258 262 265 270 276 281 286 292 297 301 304 306 309 314 318 319 322 326 328 332
213 213 212 213 213 214 214 214 215 216 217 218 220 221 221 221 221 221 222 223 224 225 225 225 225 226 227 228 228 228 229 229 229 229 229 230 231 233 235 237 239 241 243 244 245 246 246 246 247 247 248 248 247 247 247 247 248 248 250 250 250 250 250 252 254 256 259 263 267 273 278 283 289 294 298 301 304 306 311 315 318 322 325 328 331
215 215 214 213 213 213 213 213 214 215 217 218 219 220 221 221 221 222 222 223 224 224 224 224 225 225 226 227 228 228 229 229 229 229 230 230 232 234 236 238 239 241 243 244 245 247 247 248 248 249 249 249 248 247 248 249 250 250 250 250 250 250 250 251 253 255 257 260 265 270 275 280 288 293 295 299 301 303 307 312 316 320 323 326 328
217 217 216 214 213 213 213 213 214 215 216 218 219 220 221 221 221 222 222 223 224 224 224 224 225 225 226 227 228 229 230 229 229 230 230 231 232 234 236 238 240 241 243 244 245 247 248 249 250 250 250 250 249 248 248 249 250 251 252 251 251 250 250 251 253 254 255 259 264 269 273 278 284 290 293 295 297 300 304 308 313 316 320 323 324
220 219 217 214 213 214 214 213 214 215 216 217 219 220 220 221 222 222 222 223 224 224 224 224 225 225 225 226 228 229 230 230 230 230 231 232 232 234 236 238 240 241 243 244 245 246 247 248 250 250 251 251 251 250 249 249 250 251 252 253 252 251 250 251 253 255 256 259 263 268 273 276 281 286 290 291 293 297 300 305 309 313 316 319 322
225 221 217 214 213 214 214 215 215 216 217 218 219 219 220 221 222 222 222 223 223 224 224 224 225 225 226 226 227 229 230 230 230 230 232 232 232 234 235 237 240 242 243 244 244 245 246 248 249 251 251 252 252 252 251 250 251 252 253 253 254 253 252 251 254 256 258 261 264 268 272 275 278 283 286 288 290 293 296 300 305 310 313 316 318
224 221 219 216 214 214 215 215 216 217 217 218 219 220 220 221 221 222 222 223 224 225 225 225 225 226 226 226 227 228 229 229 230 230 231 232 233 234 235 237 239 242 244 244 245 245 246 247 249 250 252 252 252 252 251 250 250 251 253 254 255 255 253 253 255 257 259 262 264 268 274 277 277 279 282 285 287 290 293 297 301 306 310 313 316
220 220 221 219 216 215 215 216 217 217 217 218 220 221 221 221 221 222 222 223 224 225 226 226 226 226 227 227 227 228 229 229 229 230 231 232 232 234 235 236 238 241 244 244 245 246 246 247 248 249 251 252 253 252 252 251 251 251 251 253 255 255 254 254 255 257 259 262 265 269 273 275 274 275 279 283 285 288 292 295 299 303 306 310 314
220 221 223 221 217 216 216 216 217 218 218 219 220 221 222 222 222 222 222 223 224 225 226 227 227 227 228 228 228 229 229 229 229 230 231 232 232 234 235 236 238 241 243 244 245 246 246 247 248 249 250 251 252 252 252 252 252 251 251 252 254 255 255 256 256 257 259 261 264 267 270 272 273 275 277 281 284 287 290 293 297 301 303 306 310
223 223 223 221 219 217 216 217 218 218 219 220 221 221 222 222 223 223 223 224 225 226 227 228 228 229 229 229 229 230 230 230 229 229 231 232 233 235 235 236 238 240 242 244 245 245 246 247 247 248 249 250 251 251 252 252 252 252 252 252 253 254 255 257 258 258 259 261 264 266 269 272 274 275 277 280 283 285 287 290 294 297 299 302 306
225 224 223 222 220 219 218 218 218 219 220 221 221 222 222 223 224 224 225 226 226 227 228 228 229 229 230 230 230 230 231 231 230 230 231 231 232 235 236 236 237 240 242 244 245 246 246 247 248 248 249 250 250 250 251 252 253 253 253 254 254 254 256 257 258 259 260 262 264 267 270 272 274 275 277 280 282 283 286 289 292 293 295 298 302
224 223 224 223 221 220 219 219 219 220 221 222 222 223 223 224 224 225 225 226 227 228 229 229 229 230 230 231 231 231 232 232 231 231 231 232 232 234 235 236 237 240 242 244 245 246 247 248 248 248 249 249 249 250 250 251 252 254 254 254 255 256 257 258 258 259 261 262 264 266 269 272 273 275 278 281 283 284 285 288 289 290 292 296 299
226 224 224 223 222 221 220 220 220 221 222 223 223 223 224 224 225 225 226 226 227 228 229 230 230 230 230 231 232 232 232 233 233 232 232 233 233 234 236 237 238 240 242 243 245 246 247 248 249 249 249 249 249 250 251 251 252 254 255 255 256 257 258 258 258 258 259 262 264 266 268 271 273 275 278 281 283 285 286 288 289 289 291 294 298
229 226 224 222 222 222 221 222 222 222 223 223 223 224 224 225 226 226 226 227 227 228 229 230 231 231 230 231 231 233 233 233 233 233 233 234 234 235 237 238 239 240 241 243 244 246 247 249 250 250 250 250 250 250 251 252 254 255 256 256 256 257 257 257 257 258 259 262 265 267 269 271 273 275 278 280 282 284 286 288 288 288 290 293 296
231 227 224 223 222 222 222 222 222 222 223 223 224 224 225 225 226 226 227 227 228 228 229 230 230 231 230 230 231 232 233 233 233 234 234 234 235 236 238 240 240 240 241 243 244 246 247 249 250 250 250 250 250 251 251 253 254 255 256 256 255 255 256 256 256 257 260 262 265 267 270 272 274 275 277 278 281 283 285 286 286 287 289 292 295
232 227 224 223 223 223 223 222 223 223 223 223 224 224 225 225 226 226 227 228 228 229 230 230 230 231 230 230 230 231 232 233 233 234 234 234 236 237 239 240 240 240 241 243 245 246 247 248 249 249 249 250 250 251 252 253 254 256 256 256 255 255 256 256 257 258 261 263 266 268 270 272 273 274 275 277 279 281 283 284 285 286 288 290 294
231 226 223 222 222 222 223 223 222 223 223 223 224 224 225 225 226 226 227 228 228 230 230 231 231 231 231 230 229 230 231 232 233 234 234 234 235 237 238 239 239 239 240 242 244 245 245 246 247 249 249 250 251 252 253 254 254 255 256 255 255 256 256 257 258 260 262 264 266 268 270 272 273 274 275 276 278 279 281 283 284 286 288 291 294
231 226 223 222 222 221 221 221 222 223 223 223 224 225 225 226 226 227 227 228 228 230 231 231 232 231 231 230 229 229 230 231 232 234 234 235 236 236 237 237 238 238 240 241 242 243 243 245 247 248 250 251 252 253 254 255 255 255 255 256 256 256 257 258 259 261 262 264 266 267 270 271 272 273 274 275 277 279 280 282 284 286 289 291 292
230 226 223 222 222 221 220 220 222 223 223 224 224 225 225 226 227 227 228 228 229 229 230 231 232 231 230 230 229 229 229 229 230 232 234 234 236 236 237 237 237 238 239 240 240 241 242 244 246 248 249 250 252 253 255 255 256 256 255 256 257 257 258 259 260 261 262 263 265 267 269 270 271 273 274 275 276 278 279 280 283 286 288 288 290
229 226 223 222 222 221 221 221 222 223 224 225 225 225 226 226 228 229 229 229 228 229 230 231 232 231 230 229 228 228 229 229 230 231 232 233 234 235 235 236 236 236 237 238 239 240 241 243 245 247 249 250 251 253 254 255 256 256 256 256 256 257 257 258 259 261 262 263 264 265 266 268 270 271 272 273 274 276 278 280 283 284 285 286 288
229 226 224 223 223 223 223 224 223 224 225 225 226 226 226 227 229 230 230 229 229 229 230 231 232 231 230 229 227 227 228 229 229 230 231 232 232 232 233 234 234 235 235 236 237 238 240 242 244 246 248 250 251 253 254 255 256 256 256 256 256 256 257 257 259 260 261 262 262 263 264 267 268 269 269 270 272 274 277 280 281 282 283 285 286
229 226 224 224 224 224 225 226 226 225 225 226 226 226 226 228 229 230 230 230 229 229 230 232 232 231 230 229 228 227 228 229 228 228 229 230 229 230 231 233 234 235 235 236 236 238 239 241 243 246 248 250 252 253 254 255 256 256 256 257 257 257 257 258 259 260 260 260 260 261 263 265 267 267 268 270 271 274 276 278 279 279 281 283 285
229 227 225 225 225 226 227 228 229 228 227 226 225 225 225 227 229 230 230 230 228 228 230 231 231 230 230 230 229 229 229 229 228 227 228 229 229 231 232 233 234 235 235 235 236 238 239 241 244 247 249 250 252 253 254 256 256 257 257 257 258 258 258 259 260 259 257 256 257 260 262 263 264 266 267 268 270 272 274 276 276 277 279 281 283
231 228 227 227 227 227 228 230 232 233 232 229 227 225 224 225 227 228 229 229 228 227 229 230 230 229 229 229 229 230 230 230 229 228 229 230 231 232 233 234 234 234 234 235 236 238 239 241 244 246 248 250 252 253 254 256 256 257 258 258 259 259 258 257 258 257 254 253 256 260 264 265 265 265 267 268 268 269 271 273 274 276 279 281 283
232 231 230 229 229 229 230 231 232 234 235 235 233 228 224 224 225 226 227 227 226 226 227 228 229 229 230 230 230 230 230 230 230 230 230 231 232 233 233 234 234 233 233 234 236 237 239 241 244 246 248 250 251 253 254 256 257 259 260 260 260 259 258 257 258 259 257 257 259 264 268 267 266 265 266 267 267 268 269 271 273 275 278 281 285
234 233 232 231 230 230 231 233 234 234 235 236 236 233 228 224 223 224 224 224 224 225 226 226 228 229 230 230 230 230 229 230 230 230 230 230 231 231 232 233 233 233 234 235 236 237 238 240 242 245 247 249 251 253 255 257 258 260 260 258 257 259 261 263 264 264 264 265 266 268 269 268 267 265 264 264 265 266 267 270 273 274 276 280 284
235 235 234 234 233 233 234 234 235 236 235 235 235 235 232 227 223 222 222 222 222 223 223 225 227 229 229 229 229 229 228 228 228 228 228 228 228 228 229 230 232 233 234 235 236 236 238 239 241 244 247 250 253 255 257 259 260 259 258 257 256 258 261 263 264 265 267 269 270 269 268 267 267 265 264 263 263 264 267 270 272 273 274 279 283
236 236 236 236 236 236 236 236 236 236 236 235 234 234 233 230 225 221 220 221 221 221 222 224 226 227 227 227 227 227 227 227 226 226 226 226 225 226 228 230 232 232 233 235 235 236 237 239 242 245 248 251 255 257 259 260 260 259 258 259 260 262 264 265 267 269 271 272 272 270 267 266 265 264 264 264 263 264 266 269 271 272 275 279 282
237 237 237 237 237 236 236 237 237 237 236 235 234 233 232 231 228 223 220 219 219 220 221 222 223 224 224 225 225 225 225 225 225 226 226 225 226 228 230 231 232 233 233 235 236 237 238 240 243 247 250 253 256 258 259 260 261 261 261 263 265 269 273 273 273 274 275 276 275 273 270 267 266 265 265 264 264 264 266 269 271 274 276 278 280
237 238 237 237 236 236 236 236 237 237 236 235 234 232 231 230 229 225 221 218 217 218 219 220 221 222 222 223 223 224 223 223 224 226 227 227 228 230 232 232 233 234 235 236 238 239 240 241 244 248 251 253 255 257 259 261 262 263 265 267 269 272 275 276 276 277 278 277 277 276 273 271 269 267 266 265 266 267 267 269 271 274 276 276 279
236 237 237 236 235 235 235 236 236 237 236 235 233 231 230 228 227 226 222 217 214 215 218 219 220 221 221 221 222 222 222 223 224 226 227 229 230 231 231 232 233 234 236 238 239 239 240 242 246 249 251 252 254 257 259 262 263 264 268 272 274 275 275 276 278 278 278 278 278 277 275 272 270 267 265 266 267 268 269 271 273 275 276 277 280
236 236 236 236 235 234 235 236 236 236 236 234 231 230 229 227 226 225 221 214 211 213 216 217 219 220 220 221 222 223 223 224 225 226 227 228 229 229 230 231 231 232 234 237 238 239 241 244 247 249 251 252 255 257 260 262 263 266 269 273 276 277 277 278 278 277 276 276 277 276 275 274 271 266 264 265 267 269 271 273 275 277 278 280 282
235 235 235 236 235 234 234 235 235 235 233 231 230 229 227 225 225 223 218 211 209 211 213 215 217 219 220 221 222 223 223 223 224 226 226 227 227 228 229 230 230 231 233 235 237 239 242 245 248 250 252 254 256 257 259 261 264 267 270 272 274 276 277 277 277 274 273 274 275 274 274 274 271 267 265 266 268 270 272 274 277 278 279 281 283
234 233 233 234 235 235 234 234 233 232 230 228 229 227 224 222 222 219 213 207 206 207 210 213 215 218 219 220 220 221 222 223 224 225 226 227 228 229 230 230 231 232 234 236 238 240 243 246 249 251 252 253 255 257 259 262 265 267 269 271 272 273 274 275 275 273 272 273 273 273 272 270 269 268 268 269 270 273 274 276 278 279 280 281 283
231 231 232 233 233 233 232 230 229 228 228 227 226 222 219 218 217 212 207 204 203 203 206 210 213 215 217 218 218 219 222 223 224 225 226 228 229 230 231 232 233 234 236 238 239 241 243 245 248 250 253 254 255 257 260 263 264 266 268 270 271 272 273 273 273 272 272 271 271 270 269 268 268 269 270 271 272 274 275 276 277 279 280 282 284
227 227 229 231 232 231 229 227 225 224 223 221 218 215 215 215 212 206 202 199 198 199 204 209 212 214 216 218 219 222 224 224 225 225 226 227 229 230 232 233 234 235 237 239 241 243 244 246 248 251 253 255 257 259 262 263 264 265 267 269 270 271 272 271 271 271 271 270 269 269 269 270 270 272 273 274 275 276 276 277 278 280 281 283 284
222 220 222 225 228 227 225 223 220 217 215 213 211 212 212 210 206 202 199 197 197 201 206 210 213 215 218 219 221 222 222 223 223 224 225 227 229 231 232 233 235 237 239 241 243 245 248 250 252 253 253 255 257 259 262 264 265 266 267 267 268 269 270 270 270 270 270 269 269 270 271 272 273 274 275 277 278 278 278 279 281 282 283 284 285
225 222 220 220 221 221 220 219 218 214 210 207 207 208 208 205 202 199 198 197 200 205 208 211 213 216 217 218 219 219 220 221 223 224 226 229 231 233 234 235 237 239 241 244 246 247 249 252 254 255 255 256 257 259 261 264 266 266 266 267 268 269 269 269 269 269 269 270 271 272 273 275 276 276 277 278 278 279 280 281 282 283 284 285 286
227 228 227 224 222 221 218 215 213 211 208 206 205 207 206 205 203 201 200 201 204 207 208 210 213 215 216 217 218 219 220 221 223 225 227 230 232 234 236 238 239 242 244 246 247 248 250 253 255 256 256 256 257 259 261 264 265 266 266 267 268 269 269 269 268 268 270 271 272 273 276 278 278 278 279 279 280 281 282 282 283 284 285 286 287
229 230 230 228 227 227 227 222 216 213 211 207 205 206 206 206 204 204 204 206 208 209 209 210 213 215 216 218 220 221 222 223 224 227 230 232 234 236 238 240 243 245 247 247 247 248 250 253 255 255 256 257 258 260 262 263 264 265 266 268 270 270 269 268 268 269 271 273 274 275 277 278 279 279 279 280 281 281 282 282 284 285 286 286 287
230 230 230 229 228 228 230 230 225 222 220 216 211 209 209 208 209 210 210 211 212 213 214 215 215 216 218 220 223 224 224 224 224 227 231 234 236 238 240 242 245 248 248 246 245 245 248 251 254 256 258 259 260 261 262 262 262 263 266 269 271 270 269 268 270 272 273 274 275 277 277 278 278 278 279 280 281 281 282 283 284 285 286 286 287
231 231 230 230 229 228 228 229 228 226 225 224 222 219 216 214 214 215 216 216 216 217 218 217 215 214 217 221 225 226 226 225 226 229 233 236 239 241 243 245 247 249 249 246 243 242 246 251 254 256 258 259 260 261 263 263 264 265 268 269 271 271 271 271 273 274 275 275 277 278 278 278 279 279 279 280 281 282 283 284 284 285 286 287 287
231 231 230 230 229 229 229 229 229 228 227 226 225 224 222 221 219 219 219 218 219 219 219 218 217 217 219 221 224 227 230 231 232 233 235 238 241 244 246 248 249 251 251 246 241 241 247 253 257 257 258 260 262 264 265 266 267 268 270 271 272 273 274 275 276 277 278 278 279 279 280 280 280 280 280 280 281 281 282 284 284 285 286 286 286